Simultaneous Nadir Overpasses (SNOs) Predictions

Prediction of SNOs between GOES-17 and METOP-B Satellite Orbit:

Table of predicted SNOs for the next 14.0 days since TLE Epoch: 4/19/2019
Index Date Time (GOES-17) GOES-17 Lat,Lon METOP-B Lat,Lon Distance(km) Time Diff (sec)
1 04/20/2019 18:34:42 -0.00,-137.22 -0.26,-136.04 135.09 80
2 04/22/2019 06:53:43 -0.00,-137.17 -0.76,-140.63 394.92 80
3 04/23/2019 06:30:24 -0.01,-137.16 0.32,-135.63 173.33 80
4 04/24/2019 18:49:16 0.01,-137.20 0.67,-140.20 342.12 80
5 04/25/2019 18:31:17 0.01,-137.19 -0.41,-135.20 226.20 80
6 04/27/2019 06:50:18 -0.01,-137.13 -0.61,-139.80 304.49 80
7 04/28/2019 06:26:59 -0.01,-137.11 0.48,-134.80 263.10 80
8 04/29/2019 18:45:51 0.02,-137.14 0.51,-139.36 253.60 80
9 04/30/2019 18:27:51 0.02,-137.13 -0.58,-134.36 314.20 80
10 05/02/2019 06:46:53 -0.02,-137.06 -0.45,-138.96 216.88 80
11 05/03/2019 06:23:33 -0.02,-137.04 0.64,-133.96 350.08 80




NCC Satellite Simultaneous Nadir Overpasses (SNOs) Prediction Service
